Wind_Speed
43 43 41 37 36 35 35 35 36 34 33 33 37 43 40 39 29 27 29 32 32 29 26 25 23 21 18 19 15 19 17 17 21 23 24 23 20 23 20 21 24 26 25 24 22 22 26
46 45 43 39 37 36 35 38 38 32 34 37 39 42 43 34 27 29 32 34 35 32 27 26 24 21 18 18 21 18 19 18 18 22 24 24 23 24 23 26 26 27 28 26 24 26 31
49 45 45 42 39 36 35 38 38 36 35 37 38 41 44 33 26 28 31 33 34 32 27 26 25 19 20 19 22 21 18 16 19 18 24 26 26 25 26 28 29 30 33 29 22 28 30
51 48 46 42 41 40 38 39 38 37 38 36 38 42 42 32 27 28 31 31 32 29 25 27 24 20 17 23 24 21 18 17 18 19 21 24 27 27 28 30 30 32 34 29 20 26 29
52 51 49 44 41 40 37 37 38 38 39 37 43 44 43 34 30 31 32 28 30 28 22 25 24 21 16 18 22 19 19 16 19 19 19 20 22 25 27 29 28 31 35 35 31 30 36
53 53 49 46 42 39 38 36 38 38 43 43 47 46 43 35 34 34 35 30 30 27 21 27 26 22 21 17 20 19 20 17 16 18 16 18 18 21 25 32 31 32 38 39 39 37 39
54 52 51 43 43 41 39 36 37 41 46 50 41 44 37 35 35 36 36 32 26 25 20 30 30 19 22 20 20 19 18 17 15 16 19 20 16 22 26 32 35 38 39 40 37 38 43
56 53 49 48 51 44 42 37 39 44 48 46 42 39 36 36 37 35 35 34 29 27 10 26 29 27 20 23 20 19 18 17 17 18 21 23 16 27 28 30 35 38 44 47 50 49 50
59 55 54 54 53 45 43 40 42 49 51 46 46 41 37 36 37 36 36 37 33 31 27 14 24 25 22 22 20 17 21 22 22 21 27 29 20 31 37 40 43 47 49 53 54 55 53
56 57 59 55 52 47 43 46 49 51 52 48 47 39 35 35 40 40 35 38 37 35 34 23 20 20 19 19 22 21 23 24 27 27 32 32 29 37 40 44 46 52 50 54 54 57 60
60 61 58 56 54 48 48 52 49 51 51 49 42 38 35 35 41 41 32 38 40 42 36 35 21 21 21 23 20 24 27 31 31 34 38 35 35 40 42 45 50 53 54 54 55 58 59
69 65 56 52 51 52 50 52 49 53 52 46 41 39 38 38 41 42 39 36 38 40 39 35 33 25 23 24 29 33 37 37 38 38 44 42 39 45 48 47 45 46 50 52 52 54 58
71 65 63 55 56 53 52 53 52 47 48 44 43 41 42 40 41 43 42 44 43 40 33 37 38 36 29 28 33 36 40 42 46 48 47 46 49 53 54 57 56 55 53 55 58 60 61
71 69 68 68 63 62 62 60 60 50 47 45 44 44 45 42 44 43 44 47 48 40 33 31 37 38 43 38 37 40 42 47 47 50 52 54 55 54 53 56 57 54 52 54 60 65 68
64 60 73 71 65 62 65 62 46 44 43 43 44 43 41 38 36 40 43 47 44 39 37 37 31 38 42 41 46 49 47 47 48 51 54 56 57 58 61 65 60 52 55 59 65 69 73
59 55 59 61 63 61 55 53 47 47 47 45 42 40 39 40 43 42 46 49 44 38 39 42 41 41 42 40 42 47 47 46 51 56 58 60 61 61 61 59 55 58 61 64 68 69 71
52 54 57 57 56 58 56 53 46 47 43 45 44 43 43 45 41 43 44 44 43 43 44 45 42 46 47 47 49 49 53 55 54 55 62 64 64 61 61 61 63 67 70 70 72 73 72
51 55 56 58 56 56 55 53 45 45 47 41 44 49 46 47 46 46 45 42 46 44 45 47 51 54 48 49 57 55 58 62 60 61 66 65 64 65 63 64 67 69 69 70 68 66 65
51 58 63 54 59 58 52 44 42 45 47 41 50 51 52 52 51 44 35 38 46 54 52 55 62 58 51 56 60 61 65 65 67 65 62 63 65 66 67 70 72 73 71 67 64 66 69
66 61 57 58 53 43 39 47 46 46 51 45 56 56 52 47 46 44 41 43 49 52 57 57 58 56 55 59 63 66 66 65 66 66 66 65 69 71 71 71 69 71 66 66 66 67 69
70 72 67 58 51 44 40 47 54 54 57 51 58 62 55 56 46 41 42 48 49 50 51 60 58 55 60 64 64 62 63 64 65 67 70 72 72 72 72 71 69 70 70 71 70 66 64
71 53 56 47 53 60 45 51 55 62 55 56 66 56 46 42 40 45 45 49 51 53 54 55 60 61 61 63 61 62 66 70 70 70 71 71 71 70 70 72 71 73 75 70 66 63 62
87 80 65 52 55 54 57 52 55 54 65 58 48 52 38 38 41 46 49 50 54 53 53 55 55 53 57 63 66 65 67 70 69 67 65 67 72 75 77 75 75 81 67 66 62 60 62
66 66 70 63 56 56 57 47 52 54 54 58 57 59 45 44 47 52 58 59 55 57 62 60 58 61 63 63 64 67 69 68 67 68 72 75 74 72 74 72 76 69 59 56 56 55 47
71 66 67 67 72 72 68 55 41 42 38 32 33 36 42 45 49 54 59 61 62 60 57 58 58 61 64 66 67 67 68 70 72 73 71 69 72 72 68 61 62 57 47 42 35 28 28
60 47 45 49 54 47 44 39 45 44 42 42 44 51 50 52 54 55 56 59 60 57 58 59 62 63 63 64 66 69 72 71 70 73 75 73 68 62 60 57 47 39 32 28 27 31 35
48 43 47 43 38 41 46 47 50 49 50 47 51 56 50 47 49 51 55 60 60 60 61 61 59 60 64 67 70 72 74 73 74 72 66 59 53 44 38 38 40 31 35 30 26 30 34
45 46 41 41 39 43 45 46 46 44 38 37 41 40 43 50 54 57 56 54 55 57 59 60 63 67 71 74 76 75 77 72 67 57 46 38 28 32 32 41 42 41 42 39 41 41 41
27 34 34 34 36 40 36 41 32 32 36 40 43 42 45 51 49 49 51 52 55 60 62 67 71 74 76 76 72 68 60 53 42 37 29 30 34 39 36 37 40 45 45 49 44 30 21
Wind_Direction
246 251 254 256 260 265 273 275 278 285 288 296 302 304 311 316 311 316 317 321 320 317 307 304 293 300 295 296 287 284 288 274 260 255 254 255 248 252 260 260 260 265 262 262 261 265 269
246 249 253 255 259 265 272 277 280 281 285 293 299 303 310 309 307 310 315 318 318 320 309 301 296 298 292 286 292 289 288 282 263 256 251 253 255 256 260 257 259 261 262 269 279 284 288
244 247 252 254 258 262 268 275 279 281 282 290 298 302 306 302 304 311 314 315 318 315 309 302 296 297 294 291 292 293 283 282 271 260 252 256 261 265 262 263 264 271 273 274 284 280 284
243 243 248 251 257 261 266 272 275 275 280 288 296 298 304 298 301 308 311 315 315 311 307 299 295 306 288 286 292 292 290 286 275 270 256 255 260 264 268 270 274 274 275 275 266 274 278
242 244 246 249 254 259 261 268 272 275 277 285 295 296 302 294 295 302 304 311 314 313 305 296 296 304 305 288 290 292 288 287 281 277 276 268 266 271 275 274 274 281 283 283 282 284 289
239 243 245 248 252 255 257 263 268 271 280 284 290 295 297 289 293 300 299 308 310 316 303 290 291 300 298 288 287 290 286 286 281 283 276 271 271 275 277 277 281 279 279 281 289 293 292
238 241 244 246 253 254 258 259 264 273 276 281 283 292 292 290 292 297 300 303 303 311 309 292 289 297 301 295 289 290 287 284 283 282 277 269 272 277 274 280 283 284 286 292 295 291 286
236 239 240 250 252 251 254 257 264 265 278 276 285 286 288 289 292 294 302 303 303 310 296 281 291 299 301 292 287 285 277 273 275 275 277 280 291 284 283 283 285 288 293 296 293 293 292
237 236 245 249 250 250 250 258 261 265 274 273 285 283 284 289 289 291 296 296 304 312 315 290 289 292 289 286 289 281 275 275 272 273 279 281 290 284 290 291 293 292 292 290 292 294 296
231 240 250 243 247 246 248 258 265 264 270 274 278 281 286 284 288 295 293 291 296 306 309 317 308 302 293 284 279 275 268 266 268 275 276 282 288 290 291 293 291 288 291 291 294 292 293
232 242 238 242 241 240 248 260 260 262 267 275 273 277 283 284 285 293 294 302 294 299 304 309 307 304 296 288 279 271 266 269 269 272 275 281 286 289 290 291 288 292 292 294 293 290 291
233 236 239 235 238 244 246 254 260 260 265 274 271 276 278 280 286 293 290 307 300 293 293 302 301 300 291 286 281 278 274 271 272 271 271 278 288 289 288 294 293 288 289 293 294 292 291
231 235 236 234 240 242 246 250 257 263 264 267 270 273 277 278 284 288 283 292 300 290 297 299 300 296 293 288 284 279 276 280 282 281 282 292 294 293 296 300 300 299 300 299 297 299 301
228 233 241 240 239 248 249 251 262 261 261 263 269 275 276 280 280 284 282 287 288 297 295 295 294 293 297 295 286 284 285 285 282 283 290 290 288 292 297 300 298 300 300 299 298 299 299
232 239 241 242 246 247 250 257 256 253 257 268 269 277 276 276 274 282 279 281 289 296 291 288 285 290 290 292 292 290 286 286 287 290 291 293 295 296 298 298 299 300 296 294 294 295 294
238 238 237 242 243 248 251 252 251 254 260 265 271 273 273 282 276 279 279 277 287 283 286 290 293 295 293 291 293 289 284 287 296 296 296 299 296 294 295 293 294 294 292 292 293 292 291
235 242 240 240 245 248 249 251 249 258 264 260 270 268 272 284 272 280 281 281 285 286 285 282 285 291 292 294 295 290 286 288 293 297 296 295 293 293 294 292 293 293 293 293 293 291 290
241 240 243 243 244 250 251 245 250 259 266 264 277 270 276 284 270 278 285 278 281 285 294 289 290 290 289 293 291 292 293 282 282 286 290 291 289 288 288 288 288 290 290 290 290 289 284
238 241 239 240 246 250 247 249 260 259 267 265 266 266 276 278 267 277 289 290 286 289 294 296 298 291 284 290 296 293 297 294 286 288 288 289 287 289 288 287 287 290 291 290 287 286 285
240 246 242 240 241 241 238 253 245 262 253 261 264 268 269 266 269 278 289 288 291 288 288 291 292 286 285 288 292 294 296 293 291 291 289 287 287 286 285 285 287 288 290 286 283 283 285
241 236 240 240 236 236 245 249 251 255 258 261 251 269 264 269 260 284 295 296 298 293 293 292 286 288 288 286 289 294 293 292 293 291 289 286 285 284 286 287 287 288 288 283 282 285 286
232 233 232 230 233 232 248 239 243 255 254 253 256 258 267 268 285 295 295 299 297 296 293 290 286 291 292 289 293 295 293 291 289 289 287 285 286 286 287 287 284 283 282 283 286 288 288
230 237 233 237 237 247 248 256 251 252 249 250 254 247 280 285 285 288 292 295 299 297 294 290 293 297 294 291 291 290 289 288 287 286 286 287 287 286 287 284 281 282 290 287 290 290 289
237 231 229 243 243 245 249 247 245 254 246 246 254 260 269 281 289 292 292 294 290 288 292 289 291 292 292 290 288 286 285 285 286 289 287 285 283 281 283 283 284 292 291 290 286 282 278
239 239 247 251 253 252 249 247 235 235 252 259 263 278 294 289 285 286 286 287 288 288 287 289 292 289 288 286 285 286 288 288 287 285 281 280 283 291 291 290 292 293 291 282 271 275 279
236 229 236 231 236 225 226 243 244 253 258 268 279 288 292 289 284 285 291 291 287 286 286 286 284 284 285 287 288 285 285 285 283 282 287 291 291 290 290 293 295 301 291 286 270 264 262
227 230 233 246 256 270 275 273 266 267 271 272 273 277 284 283 283 285 286 287 286 284 281 281 287 289 289 285 282 282 283 287 287 286 288 284 283 278 276 277 286 287 281 280 267 265 270
234 239 249 260 266 263 266 259 258 261 265 271 276 276 278 278 279 283 286 285 284 286 288 291 289 287 286 286 287 290 290 289 289 290 291 290 275 270 258 260 270 274 274 268 265 271 270
243 259 256 255 241 242 256 258 253 265 270 270 270 272 278 286 285 287 287 288 285 284 286 287 287 287 288 289 290 291 292 294 294 294 279 270 271 275 272 271 268 270 270 273 271 272 260
Height
5817 5821 5824 5825 5826 5828 5830 5831 5830 5831 5832 5832 5830 5829 5826 5825 5823 5821 5817 5814 5812 5809 5806 5805 5803 5802 5801 5800 5801 5798 5798 5798 5798 5799 5801 5802 5802 5803 5805 5806 5805 5804 5806 5806 5808 5808 5807
5809 5813 5816 5817 5819 5822 5824 5827 5826 5824 5825 5825 5824 5823 5821 5819 5818 5817 5813 5810 5807 5803 5801 5799 5797 5797 5796 5796 5794 5794 5793 5793 5793 5794 5796 5797 5799 5799 5801 5800 5799 5799 5798 5801 5804 5804 5802
5800 5804 5809 5809 5812 5814 5816 5819 5821 5821 5817 5817 5817 5817 5815 5813 5813 5811 5808 5805 5803 5798 5797 5794 5791 5792 5791 5790 5788 5789 5789 5789 5788 5789 5791 5792 5794 5795 5796 5795 5795 5795 5793 5796 5801 5797 5796
5791 5794 5800 5801 5804 5806 5809 5812 5813 5812 5813 5811 5811 5810 5810 5808 5807 5805 5804 5801 5798 5794 5793 5788 5786 5787 5787 5784 5784 5784 5784 5783 5784 5784 5785 5786 5788 5789 5789 5789 5791 5789 5785 5787 5794 5789 5789
5781 5785 5791 5794 5795 5798 5801 5804 5806 5807 5806 5803 5804 5804 5804 5802 5801 5800 5798 5796 5792 5790 5788 5783 5783 5782 5783 5781 5778 5779 5778 5779 5779 5779 5780 5780 5782 5784 5784 5782 5785 5785 5780 5780 5784 5787 5780
5771 5777 5782 5786 5788 5790 5792 5795 5799 5799 5799 5796 5797 5797 5796 5796 5794 5793 5791 5791 5787 5786 5783 5778 5776 5780 5777 5778 5776 5775 5774 5774 5775 5774 5775 5776 5777 5779 5778 5774 5777 5777 5772 5772 5773 5776 5771
5760 5767 5773 5776 5781 5783 5785 5787 5790 5792 5791 5790 5788 5789 5789 5789 5787 5786 5785 5784 5785 5783 5779 5772 5771 5773 5771 5773 5771 5770 5770 5770 5770 5770 5770 5770 5774 5774 5773 5771 5769 5767 5765 5764 5765 5761 5755
5750 5756 5763 5767 5773 5775 5777 5780 5783 5783 5783 5783 5781 5781 5780 5781 5781 5778 5776 5775 5773 5775 5779 5768 5766 5765 5766 5765 5766 5766 5766 5766 5765 5765 5764 5764 5769 5764 5764 5763 5761 5759 5756 5756 5753 5751 5747
5740 5746 5752 5759 5764 5766 5769 5770 5772 5774 5775 5775 5774 5773 5773 5774 5774 5772 5770 5767 5765 5765 5767 5770 5763 5760 5760 5760 5760 5761 5762 5761 5760 5760 5757 5756 5763 5757 5754 5752 5751 5748 5746 5743 5742 5741 5737
5729 5736 5743 5749 5753 5757 5758 5761 5764 5765 5766 5766 5767 5767 5767 5766 5769 5765 5764 5760 5759 5757 5757 5764 5760 5756 5755 5754 5755 5755 5754 5756 5753 5753 5748 5749 5753 5748 5746 5745 5742 5737 5738 5734 5733 5729 5726
5716 5725 5733 5738 5742 5746 5749 5752 5754 5756 5757 5759 5759 5760 5759 5758 5759 5757 5758 5754 5752 5750 5751 5749 5755 5753 5751 5750 5750 5748 5748 5746 5747 5745 5742 5745 5743 5738 5738 5734 5730 5730 5724 5722 5719 5717 5717
5706 5713 5721 5727 5732 5737 5740 5742 5745 5747 5748 5751 5751 5751 5751 5750 5752 5750 5748 5747 5745 5744 5743 5745 5743 5746 5746 5745 5743 5740 5739 5740 5737 5736 5732 5735 5736 5731 5726 5726 5721 5717 5715 5713 5709 5704 5702
5694 5701 5710 5716 5722 5728 5730 5732 5735 5737 5739 5741 5742 5742 5742 5742 5744 5743 5741 5738 5736 5735 5742 5736 5733 5733 5737 5739 5735 5734 5731 5730 5726 5723 5724 5727 5722 5716 5714 5709 5705 5701 5697 5694 5691 5685 5688
5681 5689 5697 5705 5711 5715 5718 5722 5725 5727 5729 5731 5732 5733 5733 5734 5734 5733 5732 5730 5726 5729 5731 5733 5726 5725 5720 5724 5726 5723 5722 5719 5719 5714 5713 5710 5707 5703 5700 5697 5693 5688 5685 5681 5675 5673 5674
5668 5677 5685 5692 5698 5703 5708 5712 5715 5717 5719 5721 5722 5723 5722 5724 5725 5724 5722 5717 5720 5722 5722 5719 5724 5718 5715 5715 5712 5708 5710 5708 5704 5704 5701 5696 5694 5688 5685 5680 5680 5677 5671 5665 5657 5657 5651
5657 5667 5673 5679 5685 5692 5697 5702 5705 5707 5709 5711 5712 5713 5712 5716 5716 5715 5710 5708 5711 5714 5712 5706 5706 5706 5706 5707 5704 5698 5696 5695 5692 5688 5684 5682 5676 5674 5674 5669 5668 5663 5657 5650 5644 5636 5630
5646 5655 5662 5668 5675 5681 5687 5692 5695 5697 5699 5701 5702 5703 5703 5706 5706 5702 5700 5701 5702 5703 5703 5700 5699 5695 5694 5691 5687 5686 5685 5682 5678 5676 5672 5668 5664 5667 5659 5656 5653 5647 5641 5632 5625 5619 5611
5637 5644 5648 5658 5664 5669 5676 5682 5684 5687 5689 5690 5691 5691 5694 5695 5694 5692 5692 5695 5694 5693 5691 5689 5688 5685 5683 5679 5677 5673 5671 5667 5668 5665 5660 5653 5650 5650 5648 5641 5636 5631 5626 5619 5608 5603 5597
5627 5633 5642 5646 5652 5659 5666 5671 5674 5677 5680 5681 5679 5679 5681 5682 5681 5684 5684 5685 5682 5681 5679 5677 5675 5673 5670 5666 5661 5659 5656 5655 5651 5648 5644 5641 5634 5633 5634 5623 5616 5615 5609 5601 5590 5582 5577
5617 5626 5630 5638 5643 5649 5655 5660 5661 5668 5672 5671 5668 5668 5671 5671 5672 5673 5672 5672 5671 5669 5666 5662 5660 5657 5655 5652 5647 5643 5641 5638 5636 5632 5629 5622 5619 5617 5613 5608 5597 5596 5596 5585 5573 5565 5559
5606 5616 5623 5629 5634 5641 5646 5651 5653 5656 5658 5659 5655 5655 5659 5659 5661 5658 5658 5659 5658 5654 5651 5649 5645 5644 5641 5635 5633 5629 5626 5622 5620 5615 5611 5604 5601 5597 5593 5587 5582 5578 5574 5565 5560 5553 5539
5596 5601 5610 5616 5620 5629 5636 5642 5641 5644 5645 5645 5645 5647 5648 5647 5647 5646 5646 5647 5644 5640 5638 5635 5633 5630 5625 5622 5618 5615 5611 5606 5601 5596 5591 5585 5581 5576 5579 5564 5558 5556 5553 5549 5542 5534 5525
5583 5591 5601 5605 5612 5620 5624 5627 5629 5632 5633 5632 5635 5634 5633 5635 5636 5637 5636 5634 5631 5627 5624 5622 5619 5615 5611 5609 5603 5598 5595 5590 5585 5579 5573 5567 5558 5551 5553 5547 5534 5533 5540 5529 5522 5516 5509
5573 5580 5586 5594 5602 5608 5612 5615 5617 5619 5619 5621 5622 5622 5622 5621 5623 5624 5622 5620 5616 5613 5610 5608 5605 5601 5598 5593 5588 5582 5576 5572 5567 5564 5555 5545 5539 5531 5524 5524 5514 5520 5516 5511 5504 5498 5495
5564 5571 5579 5586 5591 5596 5603 5602 5607 5607 5610 5610 5609 5609 5609 5610 5611 5610 5608 5605 5602 5597 5594 5592 5590 5586 5581 5577 5571 5566 5562 5555 5551 5544 5537 5527 5519 5510 5505 5502 5498 5503 5498 5494 5489 5489 5486
5557 5563 5567 5573 5577 5584 5589 5592 5593 5597 5597 5595 5593 5595 5597 5597 5598 5595 5593 5591 5588 5583 5578 5578 5575 5569 5565 5561 5556 5547 5542 5534 5529 5523 5519 5509 5501 5493 5490 5485 5481 5487 5482 5484 5481 5481 5478
5545 5549 5558 5564 5566 5572 5577 5581 5584 5585 5585 5585 5585 5587 5587 5586 5583 5582 5580 5576 5573 5569 5564 5562 5559 5554 5548 5542 5536 5531 5527 5516 5509 5501 5499 5493 5487 5480 5477 5476 5474 5475 5475 5473 5472 5474 5472
5534 5545 5550 5554 5560 5564 5567 5571 5573 5574 5573 5575 5575 5575 5575 5573 5570 5568 5566 5562 5558 5555 5551 5548 5543 5537 5531 5525 5518 5510 5503 5495 5487 5482 5479 5476 5473 5472 5472 5471 5469 5466 5462 5464 5463 5464 5463
5533 5536 5542 5547 5554 5556 5560 5562 5562 5563 5564 5565 5565 5564 5562 5561 5557 5554 5551 5549 5544 5538 5535 5529 5522 5517 5511 5504 5498 5490 5485 5477 5473 5472 5471 5467 5465 5461 5461 5461 5462 5455 5452 5449 5450 5455 5455